Location: Newark
(35.9031°N, 139.7175°E)
Time: 13:26:19
(UTC+00:00)

Transit 2A - Pass Details

Date: 27 May 2020
Orbit: 592 x 967 km, 66.7° (Epoch: 06 July)

Event Time Altitude Azimuth Distance (km) Brightness Sun altitude
Rises 14:37:35 0° 326° (NW) 3,584 10.2 -32.7°
Reaches altitude 10° 14:40:10 10° 321° (NW) 2,668 9.3 -32.7°
Enters shadow 14:44:24 38° 290° (WNW) 1,429 7.4 -32.6°
